Home   Weather   Halden   Past weeks

Flag for Norway Past Weather in Halden, Norway — Yesterday and Last 2 Weeks

Now
61 °F

Cool.


Feels Like: 61 °F
Forecast: 58 / 65 °F
Wind: 10 mph from Southwest

Location: Stromtangen Fyr

Current Time: Aug 17, 2017 at 5:55:20 am

Latest Report: Aug 17, 2017 at 5:00 am


Visibility: N/A

Pressure: 30.05 "Hg

Humidity: 80%

Dew Point: 55 °F

Location of HaldenLocation

Past Weather in Halden — Graph

°F

Halden Temperature Yesterday

Maximum temperature yesterday: 65 °F (at 4:00 pm)
Minimum temperature yesterday: 61 °F (at 12:00 am)
Average temperature yesterday: 63 °F

High & Low Weather Summary for the Past Weeks

 TemperatureHumidityPressure
High69 °F (Aug 6, 6:00 pm)99% (Aug 9, 4:00 pm)30.19 "Hg (Aug 9, 4:00 pm)
Low54 °F (Aug 13, 6:00 am)45% (Aug 13, 12:00 pm)29.38 "Hg (Aug 4, 7:00 am)
Average62 °F80%29.83 "Hg
* Reported Aug 2 4:00 am — Aug 17 4:00 am, Halden. Weather by CustomWeather, © 2017

Note: Actual official high and low records may vary slightly from our data, if they occured in-between our weather recording intervals... More about our weather records

Advertising

Halden Weather History for the Previous 24 Hours

Scroll right to see more
 ConditionsComfort  
Time TempWeatherWind HumidityBarometerVisibility
4:00 am
Thu, Aug 17
62 °FCool.9 mph77%30.05 "HgN/A
3:00 am62 °FCool.9 mph77%30.05 "HgN/A
2:00 am62 °FCool.10 mph77%30.05 "HgN/A
1:00 am63 °FMild.13 mph82%30.05 "HgN/A
12:00 am63 °FMild.12 mph81%30.04 "HgN/A
11:00 pm
Wed, Aug 16
63 °FMild.10 mph82%30.04 "HgN/A
10:00 pm64 °FMild.10 mph84%30.04 "HgN/A
9:00 pm64 °FMild.10 mph83%30.03 "HgN/A
8:00 pm64 °FMild.10 mph82%30.03 "HgN/A
7:00 pm64 °FMild.12 mph82%30.02 "HgN/A
6:00 pm64 °FMild.10 mph81%30.02 "HgN/A
5:00 pm64 °FMild.10 mph82%30.01 "HgN/A
4:00 pm65 °FMild.9 mph78%30.00 "HgN/A
3:00 pm65 °FMild.12 mph81%30.00 "HgN/A
2:00 pm64 °FMild.10 mph83%29.99 "HgN/A
1:00 pm63 °FMild.9 mph86%29.98 "HgN/A
12:00 pm62 °FCool.8 mph89%29.97 "HgN/A
11:00 am62 °FCool.8 mph89%29.96 "HgN/A
10:00 am62 °FCool.9 mph91%29.94 "HgN/A
9:00 am61 °FCool.10 mph91%29.92 "HgN/A
8:00 am62 °FCool.9 mph89%29.91 "HgN/A
7:00 am63 °FMild.8 mph92%29.89 "HgN/A
6:00 am62 °FCool.9 mph94%29.88 "HgN/A
5:00 am62 °FCool.7 mph94%29.88 "HgN/A
Weather by CustomWeather, © 2017

See weather overviewHow to use our weather pages